Theta_e
303 303 306 310 317 319 321 319 311 306 303 300 300 304 310 312 313 315 313 311 307 306 307 308 308 308 309 307 305 307 307 311 313 320 320 319 322 322 322 322 326 322 326 325 324 330 331 328 332 334 331 332 332 332
303 303 305 311 316 318 318 318 310 303 301 299 300 306 312 312 314 314 314 311 308 307 309 309 310 310 309 309 310 309 307 308 308 317 316 318 323 321 319 322 321 324 324 326 323 327 326 327 329 331 332 332 332 333
303 304 306 308 313 316 317 316 309 306 300 300 303 308 311 312 313 313 313 311 309 309 311 311 314 312 309 310 310 309 309 310 309 320 315 317 322 318 321 319 321 323 321 325 326 326 326 327 330 330 330 331 333 333
304 304 309 313 313 315 316 314 307 302 299 301 304 309 311 313 312 313 314 312 310 310 307 312 311 312 312 311 311 310 310 308 312 312 309 309 318 319 320 317 320 321 322 322 325 327 327 327 329 325 329 331 332 329
304 304 307 314 314 315 315 314 302 300 300 301 304 310 312 313 314 313 313 313 312 311 308 311 310 308 307 311 311 310 309 308 308 307 308 312 315 318 318 317 321 323 324 325 326 325 325 325 328 326 326 328 329 328
304 304 310 311 314 315 314 305 301 300 300 302 309 311 312 314 314 313 312 311 310 309 308 304 308 308 310 312 309 309 308 307 307 307 308 314 316 319 313 315 318 323 324 324 326 327 327 325 325 325 325 325 325 327
304 303 307 312 313 314 312 307 300 300 302 307 311 311 313 313 314 313 310 309 309 307 306 303 304 307 310 313 313 311 308 307 307 309 310 313 314 315 312 313 316 317 326 326 327 327 327 326 325 325 325 325 325 325
303 308 310 312 313 313 302 299 299 301 305 311 310 314 313 313 314 313 313 311 307 307 305 304 304 308 311 314 311 312 309 307 310 314 313 312 312 312 312 313 315 316 324 324 326 326 326 326 325 325 327 324 321 320
307 310 312 312 312 310 299 299 300 306 310 311 313 313 313 313 313 312 310 310 310 309 306 306 307 309 312 310 314 315 312 309 311 310 309 312 311 313 313 315 316 321 324 324 325 325 325 325 328 328 321 321 320 321
306 308 311 311 311 303 301 301 302 310 311 311 312 311 313 313 311 310 308 307 308 308 307 302 304 305 308 307 309 313 314 309 312 310 312 310 312 315 317 317 316 322 323 324 323 323 324 325 328 324 322 320 320 319
309 310 310 311 310 299 298 299 307 304 309 311 311 312 310 310 307 307 307 305 305 305 304 303 303 304 307 305 305 312 314 314 315 314 314 312 313 313 319 319 320 323 323 324 322 320 324 323 325 323 322 320 321 320
310 310 310 310 305 299 299 307 310 311 311 311 310 309 309 308 307 307 306 306 305 308 309 307 309 308 309 307 310 314 320 318 320 317 321 321 317 323 323 324 325 325 323 320 319 319 323 326 324 323 322 321 321 321
309 310 310 301 299 299 299 301 309 310 312 309 310 309 309 307 304 310 311 311 309 310 312 312 309 309 308 307 311 316 319 321 317 320 323 320 321 322 322 323 321 321 323 323 322 322 321 323 324 324 322 322 323 323
309 308 304 301 298 298 300 308 310 311 310 311 311 306 307 309 308 307 309 309 311 312 313 312 309 309 309 310 313 320 318 318 321 322 320 317 321 322 324 325 324 325 325 325 325 325 324 324 325 325 324 322 322 322
304 304 302 300 300 301 307 310 310 309 310 310 311 308 308 309 310 311 312 311 313 313 312 312 309 308 306 316 315 316 319 321 321 322 319 318 322 322 323 324 325 325 325 324 324 324 323 323 322 322 321 321 321 320
299 297 297 300 300 304 308 309 310 310 309 310 310 311 310 309 311 312 312 312 314 314 313 310 307 307 313 315 318 320 320 320 318 316 317 322 323 323 322 324 323 323 322 320 317 317 318 318 320 320 320 319 320 320
300 297 298 302 308 308 308 308 309 309 309 309 308 309 310 310 310 312 311 313 314 314 310 308 309 310 310 315 316 315 317 316 318 316 320 322 321 321 321 322 322 319 317 318 318 319 320 319 318 318 319 319 318 321
296 297 299 305 307 308 307 307 307 307 308 308 307 308 309 310 311 310 311 312 314 314 314 313 311 313 313 316 316 314 317 319 320 317 315 316 315 317 321 320 319 319 320 320 320 320 319 320 320 319 319 319 319 318
296 298 300 306 307 305 305 306 306 306 307 307 307 307 307 307 308 310 311 313 314 314 313 314 312 311 312 314 315 317 317 317 320 317 316 315 316 318 320 321 319 319 321 320 321 321 320 319 319 321 321 320 320 320
301 305 306 306 305 304 305 305 305 306 306 309 309 309 308 308 308 310 309 311 314 313 312 311 310 313 315 314 316 317 316 317 319 319 317 316 317 320 319 320 320 320 320 320 320 320 319 319 318 318 318 318 317 319
301 304 304 304 305 305 305 304 305 305 306 307 307 308 310 310 311 309 310 312 314 313 311 313 312 312 313 314 317 317 317 318 318 318 318 319 319 320 320 321 320 321 320 321 320 320 319 318 317 317 318 319 320 320
303 304 304 304 304 305 306 306 306 307 306 307 307 310 311 311 311 313 314 314 314 314 313 313 314 314 316 316 316 316 316 316 317 317 319 318 319 320 320 320 319 319 318 318 319 318 315 314 316 317 317 318 318 318
303 303 303 303 304 305 305 308 309 308 307 308 310 310 310 311 313 314 312 312 313 314 314 315 315 315 315 314 315 316 317 316 316 318 319 319 319 319 319 317 317 316 316 317 317 316 315 315 315 315 316 316 317 317
302 302 302 303 304 303 306 308 309 309 309 308 308 310 309 311 313 312 310 312 313 313 314 314 314 314 314 314 313 314 315 316 317 317 318 319 319 317 316 316 319 317 316 315 316 315 316 316 315 315 316 316 316 316
303 304 303 303 305 306 306 307 307 307 308 307 310 309 310 313 310 310 311 313 314 315 315 315 315 314 314 314 314 315 316 318 318 318 318 318 318 317 317 316 317 318 317 317 316 317 317 316 316 315 316 316 316 316
297 304 304 305 307 308 308 308 307 307 307 309 310 312 314 313 313 314 314 313 314 315 317 315 315 314 314 315 317 317 317 316 316 318 317 317 317 318 317 317 317 317 317 317 317 316 316 316 315 316 315 315 316 316
301 304 305 305 307 308 310 310 309 309 311 312 312 312 312 312 312 314 315 316 317 317 318 317 317 317 317 317 317 317 317 316 317 318 318 317 317 317 317 316 316 316 315 316 316 316 315 315 315 316 316 315 315 315
302 303 304 305 307 308 309 310 311 311 311 311 311 312 311 312 318 318 317 317 317 318 317 317 318 318 318 318 317 317 317 317 317 317 315 315 315 316 315 314 314 315 315 315 315 315 315 315 315 315 315 315 315 315
303 305 307 308 308 308 307 309 310 308 308 308 310 313 316 317 317 317 317 318 317 317 317 317 318 318 317 317 317 317 317 317 316 316 316 316 315 314 314 313 311 311 312 313 313 313 313 313 314 315 315 315 315 315
305 306 309 308 307 308 307 306 308 310 311 310 315 316 315 313 315 317 317 317 317 316 316 316 317 317 317 317 317 317 316 316 316 316 315 313 311 310 309 309 309 309 310 310 311 311 311 310 310 310 310 312 311 310
308 308 310 309 310 313 312 315 316 316 316 316 316 316 315 312 309 309 311 314 316 317 316 315 315 315 315 315 315 314 314 313 313 312 311 310 309 308 308 307 307 306 306 306 306 306 305 305 305 305 305 306 304 303
308 309 312 315 316 315 315 315 315 315 315 315 315 315 314 311 310 308 309 309 310 313 314 313 312 311 311 311 311 311 310 310 310 309 308 308 307 306 306 306 305 305 304 303 302 302 301 301 301 301 301 300 300 300
313 314 316 316 316 316 316 315 315 315 314 314 314 314 313 312 311 308 308 308 309 310 310 310 310 310 310 310 309 309 309 308 307 306 306 306 305 305 305 304 303 302 302 301 301 301 301 300 300 300 299 299 299 299
Wind_Speed
25 25 27 25 24 22 22 21 18 16 14 12 13 13 12 13 11 9 7 7 12 6 18 21 21 16 9 6 3 7 9 2 4 4 2 2 1 2 3 3 2 1 3 3 1 2 2 9 2 3 1 1 2 2
25 25 27 25 23 20 21 20 18 15 14 12 13 13 12 13 11 10 8 8 11 15 15 24 32 33 30 25 15 6 4 2 4 2 0 1 2 2 1 4 1 1 3 2 4 4 4 10 2 5 1 3 7 8
25 25 22 23 23 22 22 21 18 15 14 12 12 13 14 14 12 10 9 8 11 14 24 15 10 8 8 11 25 11 8 7 4 2 2 1 3 3 2 4 2 2 4 2 4 3 7 10 6 7 8 8 9 12
24 24 22 20 22 22 22 22 19 15 13 12 12 13 14 15 12 11 9 9 8 6 5 7 4 20 17 15 14 20 24 4 3 2 2 1 2 5 3 3 3 2 4 2 4 5 8 10 3 8 7 7 7 9
24 24 25 21 21 20 21 22 16 14 13 13 12 14 16 12 11 10 10 9 10 7 5 14 23 4 1 15 16 20 24 28 18 4 1 3 4 1 2 1 3 5 4 3 4 5 3 2 0 5 4 4 5 6
23 24 24 24 21 21 18 17 16 12 11 12 13 16 15 13 11 7 4 6 7 9 5 4 10 4 6 2 10 16 22 21 9 6 6 5 5 3 1 2 6 7 8 7 4 2 4 5 3 4 6 5 5 5
22 25 29 21 21 23 21 20 15 12 12 11 16 17 14 13 10 7 2 0 4 1 3 7 10 4 8 2 7 11 16 11 11 6 6 5 7 5 2 4 21 14 7 9 3 6 4 5 1 2 3 3 2 3
25 24 25 22 24 23 20 18 15 13 12 17 15 14 13 10 9 9 9 8 5 4 3 2 4 10 6 2 5 7 8 11 10 5 4 4 2 2 3 14 19 9 10 8 8 6 2 4 3 1 5 2 2 6
28 26 19 21 21 23 21 17 14 15 17 19 14 14 10 7 5 4 6 4 8 7 4 2 2 4 9 2 2 2 5 2 4 4 4 6 2 4 9 13 12 13 12 10 8 7 6 7 6 8 5 2 1 3
27 27 21 21 20 19 19 18 18 18 20 15 23 8 6 5 8 9 5 4 6 6 6 5 4 4 6 5 3 3 0 2 1 3 1 2 4 21 21 20 16 8 9 11 5 4 8 10 13 9 5 2 1 3
25 23 23 23 24 23 21 21 26 23 25 19 8 4 8 11 7 4 3 3 4 3 6 6 9 3 4 1 2 1 1 1 1 2 1 2 3 4 9 14 12 15 12 7 4 5 9 7 13 12 8 4 3 4
22 26 25 27 26 26 26 27 29 29 19 13 8 11 11 5 3 2 3 1 3 4 5 4 5 8 4 4 1 2 1 1 3 2 0 3 3 5 2 8 11 8 4 4 5 4 9 11 10 10 8 5 5 6
27 26 30 28 28 27 27 29 31 28 16 15 4 5 4 3 2 5 5 3 2 4 4 2 4 4 4 4 3 2 1 4 4 0 3 4 6 2 4 6 8 6 2 1 1 3 6 8 9 6 5 6 8 9
26 25 27 29 26 23 29 33 30 26 15 6 6 3 4 3 4 4 4 3 4 6 7 15 4 2 2 1 1 0 2 2 3 2 3 3 24 7 10 3 10 11 9 9 7 7 5 3 2 3 6 9 12 12
28 26 25 28 28 26 29 28 27 21 5 3 4 3 4 5 6 6 8 10 12 16 12 3 1 1 1 1 0 2 2 2 3 3 3 21 17 6 3 7 9 10 8 6 5 3 2 2 4 5 5 7 11 11
34 30 27 30 31 35 29 32 21 12 1 2 2 1 2 1 4 3 3 7 3 4 1 1 2 2 2 0 1 2 1 3 2 4 17 12 10 8 4 9 8 6 4 3 2 3 4 4 3 2 3 6 6 0
36 31 25 25 26 26 27 24 10 4 2 1 0 3 5 8 9 5 9 6 9 3 1 2 1 1 2 2 2 1 2 2 2 11 5 9 6 18 11 5 3 4 6 6 4 2 3 2 1 2 3 4 3 4
18 28 25 32 28 23 21 8 4 4 2 1 2 1 3 7 8 6 8 10 5 1 2 2 2 2 2 2 1 3 4 3 4 6 7 3 4 12 17 12 7 5 3 1 2 3 5 7 8 6 6 8 7 7
28 29 28 30 26 14 5 5 1 2 2 3 6 8 7 8 9 8 8 8 2 2 2 1 2 1 2 4 5 4 6 5 5 5 10 5 12 10 12 10 9 8 6 6 7 8 8 9 8 9 10 12 12 10
27 31 29 27 18 5 4 3 5 2 3 1 5 5 4 5 6 6 9 9 3 0 1 1 3 3 3 6 8 7 5 7 7 6 4 4 1 4 2 3 6 7 7 6 7 6 8 9 8 9 14 17 16 12
30 31 29 22 7 3 3 5 5 3 2 3 3 4 3 7 6 5 6 6 4 2 3 5 8 8 11 13 9 5 3 4 4 8 7 1 2 3 11 10 7 7 8 8 8 8 8 11 14 14 14 14 11 10
28 27 20 11 3 2 2 3 2 1 2 3 4 2 2 1 2 3 3 5 4 5 8 11 12 9 8 8 7 8 5 5 6 10 7 4 4 6 2 2 0 1 5 5 4 6 10 11 11 12 14 14 15 15
25 20 9 1 1 3 1 2 1 2 1 2 2 1 1 1 0 1 3 3 3 4 7 7 7 7 9 10 9 9 9 6 10 7 11 7 5 1 3 7 4 2 4 5 4 6 8 9 11 12 11 12 12 10
22 5 1 1 2 2 0 1 2 2 2 0 0 1 1 1 2 0 2 3 4 7 7 9 9 10 11 9 5 5 5 8 1 4 5 3 5 3 7 10 6 4 5 6 6 7 10 10 10 12 11 9 9 9
3 2 3 1 2 2 2 1 1 1 1 1 1 2 2 2 2 2 2 5 9 10 7 6 5 7 6 3 5 3 3 1 2 3 2 2 1 1 1 3 3 4 3 4 5 6 7 11 13 13 13 11 9 9
2 2 4 2 2 1 1 2 3 3 2 1 0 1 2 2 3 3 3 7 9 11 7 3 3 6 8 4 5 9 4 7 7 7 7 6 4 3 5 8 9 6 8 9 10 12 12 10 9 13 15 12 11 11
1 2 2 2 1 1 2 1 1 1 1 1 1 2 3 3 3 4 4 6 8 10 8 7 9 7 4 3 7 9 1 4 5 4 5 5 6 7 8 10 9 10 11 11 12 13 10 8 10 13 14 13 10 10
2 1 1 2 1 1 2 2 1 2 1 2 3 1 2 3 1 7 5 5 7 9 11 11 9 9 11 11 7 2 4 5 5 6 7 7 8 11 12 12 12 12 12 12 12 12 12 14 13 13 15 15 15 15
1 2 3 2 3 3 3 3 0 2 3 2 2 3 3 8 11 13 17 11 12 11 11 11 12 9 8 8 9 8 6 6 5 8 9 10 10 13 16 19 20 18 17 17 17 17 16 14 12 11 10 10 10 9
2 8 2 3 3 5 10 12 10 12 12 16 2 18 28 31 24 18 16 18 17 19 19 18 16 11 10 9 9 10 9 10 11 11 10 12 14 16 19 20 19 18 16 15 14 11 10 10 10 10 10 9 9 8
3 8 2 5 3 4 4 13 18 19 22 21 21 23 23 22 32 31 25 18 16 15 14 16 17 16 15 13 12 10 10 10 9 10 11 14 16 17 18 17 16 15 16 17 17 16 15 14 13 11 9 10 11 12
7 5 2 2 7 20 20 20 17 15 14 17 15 18 20 21 14 25 30 26 23 17 12 11 12 12 11 10 9 10 10 9 10 12 14 15 15 15 15 16 18 20 20 18 16 14 13 13 12 12 12 13 14 15
2 6 14 12 7 5 13 9 7 9 15 11 10 13 14 9 7 11 18 22 18 10 8 10 10 10 9 8 8 8 10 13 14 13 11 12 14 17 19 21 22 21 19 17 15 14 14 15 15 15 15 16 17 18
Wind_Direction
256 249 237 239 252 251 254 248 247 253 256 257 256 246 230 221 230 238 249 254 231 249 271 265 260 248 252 222 182 317 335 340 350 43 58 291 291 300 318 275 292 249 347 324 286 194 215 7 319 169 279 71 85 317
254 245 234 231 243 247 243 241 242 247 256 257 252 233 208 215 217 239 259 261 245 252 264 279 280 273 255 254 257 257 262 326 264 56 311 304 305 334 344 299 106 310 195 242 191 250 298 322 280 350 88 74 65 78
254 243 227 228 237 242 245 235 235 240 250 251 239 228 199 208 217 234 247 255 267 284 296 277 296 280 232 238 234 226 245 213 220 273 220 220 264 133 247 258 301 233 169 214 3 323 303 328 10 40 45 49 72 82
251 242 219 225 236 234 240 234 230 232 239 233 231 206 195 202 216 232 248 257 260 286 285 289 280 303 284 252 251 241 228 195 234 331 293 207 230 196 247 258 226 240 150 186 256 276 283 285 283 25 22 52 84 72
248 236 212 223 230 230 238 229 219 227 230 231 221 200 195 195 221 236 257 257 255 248 277 289 310 6 157 237 241 229 232 235 255 302 243 237 243 186 243 341 257 199 208 169 235 216 164 13 181 346 15 21 17 26
245 219 207 219 227 224 229 219 215 215 228 217 195 190 189 200 215 233 271 238 248 234 285 308 311 329 357 285 218 218 223 224 210 207 226 243 250 209 340 283 267 257 243 241 305 264 180 34 348 271 289 346 342 328
231 212 202 215 223 220 212 206 206 210 209 194 178 173 191 203 215 209 256 144 156 193 266 301 311 300 332 285 206 214 215 206 203 215 218 231 248 199 207 236 276 283 231 217 269 179 244 330 328 301 259 340 21 326
202 199 207 217 216 213 195 190 190 194 186 161 166 185 191 208 222 243 243 236 217 291 272 289 278 318 348 295 179 185 181 192 211 234 210 206 225 187 253 250 264 290 200 200 186 183 243 284 301 241 144 105 315 300
193 194 196 212 209 194 183 177 177 176 163 166 172 174 185 204 211 207 190 200 229 242 299 223 246 275 337 322 297 180 185 176 197 211 232 165 193 222 233 264 307 213 187 193 186 213 216 230 190 166 183 215 313 44
191 193 205 196 204 187 181 175 176 166 163 173 167 162 193 191 171 160 160 177 185 210 231 237 235 265 316 334 333 342 156 223 237 255 272 159 245 239 247 255 264 232 189 165 158 207 218 190 193 197 206 245 4 8
193 193 189 192 199 180 174 173 165 163 166 169 180 182 152 151 154 176 196 197 191 254 221 239 225 242 260 197 260 286 258 260 310 273 178 249 272 262 250 247 234 194 195 200 233 263 233 201 205 209 212 214 335 328
191 188 196 191 179 176 169 165 167 167 157 170 150 135 138 178 172 163 212 191 204 234 212 206 258 223 251 228 245 256 272 39 247 302 199 271 264 342 49 138 140 161 191 234 239 254 221 217 225 218 221 220 250 249
187 199 190 180 174 176 174 170 176 168 159 141 161 153 168 169 102 195 193 231 247 216 212 267 269 240 213 224 250 34 310 241 328 47 236 239 307 35 92 139 151 166 186 241 210 210 204 205 201 217 233 261 280 280
197 194 181 172 165 168 171 170 174 170 149 172 174 150 184 187 236 197 196 209 258 261 270 316 256 212 214 103 152 349 266 319 347 301 317 328 335 317 104 110 141 146 151 152 150 154 165 186 211 258 274 288 297 298
161 154 153 162 165 166 166 168 179 160 159 169 147 181 211 239 263 256 265 271 273 280 291 255 223 223 335 93 16 347 311 3 38 359 277 316 336 309 62 121 132 134 138 138 142 167 218 283 304 302 303 303 302 297
154 148 153 161 169 169 183 182 172 164 89 114 141 163 233 251 281 279 279 307 27 339 302 240 93 58 1 35 333 351 31 64 295 282 321 4 360 332 234 198 164 154 167 161 131 96 76 61 68 30 342 334 335 236
144 140 148 150 162 160 165 167 136 156 236 169 277 252 265 274 261 278 325 1 333 305 159 119 78 90 117 53 31 15 146 209 292 355 27 50 15 353 332 265 202 173 134 110 99 62 30 41 32 345 343 343 329 269
147 147 146 155 156 144 140 121 158 169 165 235 271 197 237 259 293 329 346 342 358 88 70 76 129 87 110 108 292 261 276 302 244 12 20 285 353 279 304 313 245 221 229 241 311 329 320 313 297 288 309 312 305 278
147 146 151 151 149 131 110 164 135 128 239 265 260 257 269 281 290 301 339 360 332 19 93 340 75 128 218 212 223 270 297 309 303 306 337 248 189 178 287 279 255 247 258 260 277 293 301 307 316 302 301 309 300 287
131 143 148 157 150 99 94 105 156 214 223 233 239 240 244 261 285 271 303 323 311 22 65 116 196 202 223 298 280 271 305 318 297 267 30 102 220 326 42 319 268 260 266 282 304 290 300 307 326 313 306 309 297 291
150 153 152 156 158 90 93 147 170 215 251 253 284 232 257 239 248 260 259 262 223 215 220 228 250 266 285 277 271 283 304 287 295 342 311 291 348 256 240 255 251 265 275 288 296 301 315 327 327 324 318 320 321 298
145 154 149 145 78 89 96 153 114 148 242 287 287 238 259 247 224 199 216 215 225 231 233 255 262 259 256 277 285 280 268 304 300 327 303 260 298 327 52 205 72 320 323 317 332 345 348 341 334 331 328 320 307 302
142 145 132 61 37 43 92 157 217 212 186 259 269 263 321 301 18 274 259 244 263 267 261 250 236 239 258 281 289 267 282 305 312 336 312 266 223 176 29 5 324 13 14 349 321 320 333 345 344 344 346 357 350 343
138 145 172 53 45 324 335 222 236 264 250 312 138 303 4 324 335 312 267 275 283 292 271 267 264 260 248 263 299 295 266 317 151 288 309 227 128 347 313 293 267 268 286 281 306 326 321 331 328 329 332 346 9 7
138 97 91 128 224 262 186 285 267 43 356 297 44 352 341 353 12 360 319 298 319 317 315 255 245 232 236 262 307 264 295 158 86 118 62 19 194 147 332 343 327 321 313 311 308 319 322 319 319 323 321 321 316 318
82 156 157 216 157 249 348 178 194 192 185 179 307 344 3 53 26 345 296 294 321 327 327 289 241 211 234 253 111 92 102 66 25 31 43 57 53 36 5 354 346 326 304 308 314 316 324 324 312 319 325 307 297 307
119 174 214 206 226 273 296 288 155 142 186 62 105 53 32 38 252 223 249 333 332 4 31 119 141 162 189 216 164 180 86 84 88 94 88 43 14 7 8 358 350 341 333 325 312 311 314 317 324 330 328 325 311 317
226 173 126 165 227 328 337 318 58 54 57 42 51 59 223 231 1 2 40 77 83 64 61 64 63 73 87 108 119 113 101 100 70 53 52 52 82 29 21 12 3 358 356 350 339 325 312 309 309 322 330 325 312 312
11 135 136 157 51 33 39 348 45 207 201 186 219 211 199 47 61 72 56 76 92 80 73 80 74 82 98 101 96 85 84 72 57 49 47 39 22 8 1 352 344 338 334 335 337 335 337 341 336 334 329 327 328 328
235 172 129 155 218 208 195 204 230 226 220 206 161 89 77 65 75 82 80 80 85 74 70 74 78 86 89 83 76 71 56 38 33 32 28 18 7 359 358 359 3 3 0 356 354 355 352 352 350 345 340 333 331 328
181 163 225 211 270 356 67 97 110 115 105 108 103 91 83 71 60 56 55 63 74 72 69 72 69 62 57 52 45 39 42 31 22 10 9 5 359 354 352 353 352 350 349 346 343 341 341 340 338 338 339 336 336 335
181 200 271 144 104 111 95 82 88 88 78 79 74 89 85 69 54 33 31 35 44 57 66 64 61 57 50 40 33 27 20 9 360 356 351 349 350 352 351 350 350 350 351 352 353 356 359 360 356 354 350 345 339 335
122 109 112 105 102 79 102 93 77 67 67 65 52 49 59 64 61 30 33 28 22 35 59 54 44 35 32 26 24 13 357 351 351 352 351 352 355 356 356 358 359 2 4 2 360 360 1 359 356 352 348 343 340 337